Weather History for KBFW - June, 2013

Change the Weather History Date:

Tuesday, June 18, 2013

  Actual Average Record
Temperature  
Mean Temperature 48 °F -  
Max Temperature 66 °F 67 °F 80 °F (2006)
Min Temperature 30 °F 44 °F 30 °F (2002)
Degree Days  
Heating Degree Days 17    
Moisture  
Dew Point 29 °F    
Average Humidity 51    
Maximum Humidity 93    
Minimum Humidity 18    
Precipitation  
Precipitation 0.06 in - - ()
Sea Level Pressure  
Sea Level Pressure 30.12 in    
Wind  
Wind Speed 0 mph (SE)    
Max Wind Speed 6 mph    
Max Gust Speed -    
Visibility 10 miles    
Events      
Averages and records for this station are not official NWS values.
T = Trace of Precipitation, MM = Missing Value Source: NWS Daily Summary

Daily Weather History Graph

Daily Weather History Graph

Search for Another Location

Airport or City:

Trip Planner

Search our weather history database for the weather conditions in past years. The results will help you decide how hot, cold, wet, or windy it might be!

Date:

Astronomy

Jun. 18, 2013 Rise Set
Actual Time 5:09 AM CDT 9:04 PM CDT
Civil Twilight 4:28 AM CDT 9:45 PM CDT
Nautical Twilight 3:33 AM CDT 10:40 PM CDT
Astronomical Twilight 2:08 AM CDT 12:05 AM CDT
Moon 3:34 PM CDT (6/18) 1:35 AM CDT (6/18)
Length of Visible Light 17h 16m
Length of Day
15h 55m
Waxing Gibbous, 71% of the Moon is Illuminated
Jun 18
Waxing Gibbous
Jun 23
Full
Jun 29
Last Quarter
Jul 8
New
Jul 15
First Quarter

Hourly Weather History & Observations

Time (CDT) Temp. Dew Point Humidity Pressure Visibility Wind Dir Wind Speed Gust Speed Precip Events Conditions
12:14 AM 33.8 °F 30.2 °F 87% 30.09 in 10.0 mi Calm Calm - N/A   Clear
12:33 AM 33.8 °F 30.2 °F 87% 30.10 in 10.0 mi Calm Calm - N/A   Clear
12:53 AM 33.8 °F 28.4 °F 81% 30.10 in 10.0 mi Calm Calm - N/A   Clear
1:13 AM 32.0 °F 28.4 °F 87% 30.11 in 10.0 mi Calm Calm - N/A   Clear
1:33 AM 32.0 °F 28.4 °F 87% 30.11 in 10.0 mi Calm Calm - N/A   Clear
1:53 AM 32.0 °F 28.4 °F 87% 30.11 in 10.0 mi Calm Calm - N/A   Clear
2:14 AM 32.0 °F 28.4 °F 87% 30.12 in 10.0 mi Calm Calm - N/A   Clear
2:33 AM 32.0 °F 28.4 °F 87% 30.12 in 10.0 mi Calm Calm - N/A   Clear
2:53 AM 32.0 °F 28.4 °F 87% 30.12 in 10.0 mi Calm Calm - N/A   Clear
3:13 AM 30.2 °F 28.4 °F 93% 30.12 in 10.0 mi Calm Calm - N/A   Clear
3:33 AM 30.2 °F 28.4 °F 93% 30.13 in 10.0 mi Calm Calm - N/A   Clear
3:53 AM 30.2 °F 28.4 °F 93% 30.12 in 10.0 mi Calm Calm - N/A   Clear
4:13 AM 30.2 °F 26.6 °F 86% 30.13 in 10.0 mi Calm Calm - N/A   Clear
4:33 AM 30.2 °F 26.6 °F 86% 30.13 in 10.0 mi Calm Calm - N/A   Clear
4:53 AM 30.2 °F 26.6 °F 86% 30.13 in 10.0 mi Calm Calm - N/A   Clear
5:13 AM 30.2 °F 26.6 °F 86% 30.13 in 10.0 mi Calm Calm - N/A   Clear
5:33 AM 30.2 °F 28.4 °F 93% 30.14 in 10.0 mi Calm Calm - N/A   Clear
5:53 AM 33.8 °F 30.2 °F 87% 30.14 in 10.0 mi Calm Calm - N/A   Clear
6:13 AM 35.6 °F 32.0 °F 87% 30.14 in 10.0 mi Calm Calm - N/A   Clear
6:33 AM 39.2 °F 35.6 °F 87% 30.14 in 10.0 mi Calm Calm - N/A   Clear
6:53 AM 44.6 °F 37.4 °F 76% 30.14 in 10.0 mi Calm Calm - N/A   Clear
7:13 AM 48.2 °F 39.2 °F 71% 30.14 in 10.0 mi Calm Calm - N/A   Clear
7:33 AM 53.6 °F 41.0 °F 62% 30.14 in 10.0 mi Calm Calm - N/A   Clear
7:53 AM 57.2 °F 39.2 °F 51% 30.15 in 10.0 mi Calm Calm - N/A   Clear
8:13 AM 60.8 °F 37.4 °F 42% 30.15 in 10.0 mi Calm Calm - N/A   Clear
8:33 AM 62.6 °F 35.6 °F 37% 30.15 in 10.0 mi Calm Calm - N/A   Clear
8:53 AM 64.4 °F 33.8 °F 32% 30.15 in 10.0 mi Calm Calm - N/A   Clear
9:13 AM 64.4 °F 30.2 °F 28% 30.15 in 10.0 mi Calm Calm - N/A   Clear
9:33 AM 66.2 °F 30.2 °F 26% 30.15 in 10.0 mi Calm Calm - N/A   Clear
9:53 AM 64.4 °F 28.4 °F 26% 30.16 in 10.0 mi Calm Calm - N/A   Clear
10:13 AM 64.4 °F 26.6 °F 24% 30.15 in 7.0 mi Calm Calm - N/A   Clear
10:33 AM 64.4 °F 28.4 °F 26% 30.16 in 10.0 mi Calm Calm - N/A   Clear
10:53 AM 64.4 °F 30.2 °F 28% 30.16 in 10.0 mi Calm Calm - N/A   Clear
11:13 AM 64.4 °F 28.4 °F 26% 30.15 in 10.0 mi Calm Calm - N/A   Clear
11:33 AM 62.6 °F 30.2 °F 30% 30.16 in 10.0 mi Calm Calm - N/A   Clear
11:53 AM 62.6 °F 30.2 °F 30% 30.16 in 10.0 mi Calm Calm - N/A   Clear
12:13 PM 64.4 °F 32.0 °F 30% 30.15 in 10.0 mi Calm Calm - N/A   Clear
12:33 PM 64.4 °F 30.2 °F 28% 30.15 in 10.0 mi Calm Calm - N/A   Clear
12:54 PM 66.2 °F 30.2 °F 26% 30.15 in 10.0 mi Calm Calm - N/A   Clear
1:13 PM 64.4 °F 28.4 °F 26% 30.15 in 10.0 mi Calm Calm - N/A   Clear
1:33 PM 64.4 °F 32.0 °F 30% 30.14 in 10.0 mi Calm Calm - N/A   Clear
1:53 PM 66.2 °F 28.4 °F 24% 30.13 in 10.0 mi Calm Calm - N/A   Clear
2:13 PM 66.2 °F 28.4 °F 24% 30.13 in 10.0 mi Calm Calm - N/A   Clear
2:33 PM 66.2 °F 26.6 °F 23% 30.12 in 10.0 mi Calm Calm - N/A   Clear
2:53 PM 66.2 °F 26.6 °F 23% 30.13 in 10.0 mi SSE 5.8 mph - N/A   Clear
3:13 PM 66.2 °F 24.8 °F 21% 30.13 in 10.0 mi South 3.5 mph - N/A   Clear
3:33 PM 66.2 °F 24.8 °F 21% 30.12 in 10.0 mi Calm Calm - N/A   Clear
3:53 PM 66.2 °F 24.8 °F 21% 30.11 in 10.0 mi Calm Calm - N/A   Clear
4:13 PM 66.2 °F 23.0 °F 19% 30.11 in 10.0 mi Calm Calm - N/A   Clear
4:33 PM 66.2 °F 23.0 °F 19% 30.10 in 10.0 mi SE 5.8 mph - N/A   Clear
4:53 PM 66.2 °F 24.8 °F 21% 30.10 in 10.0 mi ESE 5.8 mph - 0.06 in   Clear
5:13 PM 66.2 °F 23.0 °F 19% 30.10 in 10.0 mi ESE 4.6 mph - N/A   Unknown
5:33 PM 66.2 °F 24.8 °F 21% 30.10 in 10.0 mi Calm Calm - N/A   Clear
5:53 PM 66.2 °F 24.8 °F 21% 30.09 in 10.0 mi Calm Calm - N/A   Clear
6:13 PM 66.2 °F 23.0 °F 19% 30.09 in 10.0 mi Calm Calm - N/A   Clear
6:33 PM 66.2 °F 21.2 °F 18% 30.08 in 10.0 mi Calm Calm - N/A   Clear
6:53 PM 66.2 °F 23.0 °F 19% 30.07 in 10.0 mi Calm Calm - N/A   Clear
7:13 PM 64.4 °F 21.2 °F 19% 30.07 in 10.0 mi Calm Calm - N/A   Clear
7:33 PM 64.4 °F 21.2 °F 19% 30.07 in 10.0 mi Calm Calm - N/A   Clear
7:53 PM 62.6 °F 26.6 °F 26% 30.07 in 10.0 mi Calm Calm - N/A   Clear
8:13 PM 57.2 °F 26.6 °F 31% 30.07 in 10.0 mi Calm Calm - N/A   Clear
8:33 PM 55.4 °F 28.4 °F 36% 30.07 in 10.0 mi Calm Calm - N/A   Clear
8:53 PM 51.8 °F 33.8 °F 50% 30.06 in 10.0 mi Calm Calm - N/A   Clear
9:13 PM 48.2 °F 35.6 °F 62% 30.06 in 10.0 mi Calm Calm - N/A   Clear
9:33 PM 46.4 °F 33.8 °F 62% 30.07 in 10.0 mi Calm Calm - N/A   Clear
9:53 PM 44.6 °F 33.8 °F 66% 30.07 in 10.0 mi Calm Calm - N/A   Clear
10:13 PM 42.8 °F 35.6 °F 76% 30.08 in 10.0 mi Calm Calm - N/A   Clear
10:33 PM 41.0 °F 35.6 °F 81% 30.07 in 10.0 mi Calm Calm - N/A   Clear
10:53 PM 39.2 °F 33.8 °F 81% 30.07 in 10.0 mi Calm Calm - N/A   Clear
11:13 PM 39.2 °F 33.8 °F 81% 30.07 in 10.0 mi Calm Calm - N/A   Clear
11:33 PM 39.2 °F 33.8 °F 81% 30.07 in 10.0 mi Calm Calm - N/A   Clear
11:53 PM 37.4 °F 33.8 °F 87% 30.07 in 10.0 mi Calm Calm - N/A   Clear